Weather History for KLEX - March, 2015

Change the Weather History Date:

Wednesday, March 4, 2015

  Actual Average Record
Temperature  
Mean Temperature 38 °F 42 °F  
Max Temperature 50 °F 51 °F 81 °F (1976)
Min Temperature 25 °F 32 °F -1 °F (1873)
Degree Days  
Heating Degree Days 27 23  
Month to date heating degree days 111 95  
Since 1 July heating degree days 4089 3666  
Cooling Degree Days 0 0  
Month to date cooling degree days 0 0  
Year to date cooling degree days 0 0  
Moisture  
Dew Point 37 °F    
Average Humidity 96    
Maximum Humidity 100    
Minimum Humidity 92    
Precipitation  
Precipitation 2.54 in 0.11 in 3.54 in (1964)
Month to date precipitation 3.05 0.47  
Year to date precipitation 7.90 6.87  
Snow  
Snow 7.10 in 0.00 in 9.20 in (1917)
Month to date snowfall 7.1 0.2  
Since 1 July snowfall 30.0 11.5  
Snow Depth 0.00 in    
Sea Level Pressure  
Sea Level Pressure 29.98 in    
Wind  
Wind Speed 9 mph (NNW)    
Max Wind Speed 20 mph    
Max Gust Speed 25 mph    
Visibility 4 miles    
Events Fog , Rain , Snow    
T = Trace of Precipitation, MM = Missing Value Source: NWS Daily Summary

Daily Weather History Graph

Daily Weather History Graph

Search for Another Location

Airport or City:

Trip Planner

Search our weather history database for the weather conditions in past years. The results will help you decide how hot, cold, wet, or windy it might be!

Date:

Astronomy

Mar. 04, 2015 Rise Set
Actual Time 7:06 AM EST 6:34 PM EST
Civil Twilight 6:39 AM EST 7:01 PM EST
Nautical Twilight 6:09 AM EST 7:31 PM EST
Astronomical Twilight 5:38 AM EST 8:02 PM EST
Moon 5:52 PM EST (3/4) 6:18 AM EST (3/4)
Length of Visible Light 12h 21m
Length of Day
11h 28m
Waxing Gibbous, 99% of the Moon is Illuminated
Mar 4
Waxing Gibbous
Mar 5
Full
Mar 13
Last Quarter
Mar 20
New
Mar 27
First Quarter

Hourly Weather History & Observations

Time (EST) Temp. Windchill Dew Point Humidity Pressure Visibility Wind Dir Wind Speed Gust Speed Precip Events Conditions
12:54 AM 48.0 °F - 46.9 °F 96% 29.87 in 3.0 mi NW 8.1 mph - 0.16 in Rain Rain
1:35 AM 46.0 °F 41.9 °F 45.0 °F 96% 29.90 in 2.0 mi NW 8.1 mph - 0.10 in Rain Heavy Rain
1:47 AM 45.0 °F 40.1 °F 44.1 °F 97% 29.91 in 4.0 mi NNW 9.2 mph - 0.13 in Rain Rain
1:54 AM 44.1 °F 38.6 °F 43.0 °F 96% 29.90 in 5.0 mi NNW 10.4 mph - 0.14 in Rain Light Rain
2:54 AM 43.0 °F 40.3 °F 42.1 °F 97% 29.87 in 10.0 mi North 4.6 mph - 0.01 in   Overcast
3:01 AM 43.0 °F 38.2 °F 42.1 °F 97% 29.87 in 10.0 mi North 8.1 mph - N/A   Overcast
3:33 AM 43.0 °F 39.5 °F 42.1 °F 97% 29.90 in 2.5 mi NNW 5.8 mph - 0.03 in Rain Rain
3:48 AM 42.8 °F 38.6 °F 41.0 °F 93% 29.90 in 3.0 mi NNW 6.9 mph - 0.08 in Rain Rain
3:54 AM 42.1 °F 37.7 °F 41.0 °F 96% 29.90 in 3.0 mi NW 6.9 mph - 0.09 in Rain Rain
4:18 AM 42.1 °F - 41.0 °F 96% 29.90 in 2.5 mi Calm Calm - 0.03 in Rain Rain
4:31 AM 42.1 °F - 41.0 °F 96% 29.90 in 4.0 mi Calm Calm - 0.04 in Rain Light Rain
4:49 AM 42.8 °F 41.1 °F 41.0 °F 93% 29.92 in 2.0 mi WNW 3.5 mph - 0.07 in Rain Rain
4:54 AM 42.1 °F - 41.0 °F 96% 29.90 in 1.8 mi Calm Calm - 0.08 in Rain Heavy Rain
5:02 AM 41.0 °F - 41.0 °F 100% 29.90 in 2.5 mi Calm Calm - 0.03 in Rain Rain
5:12 AM 41.0 °F 39.0 °F 41.0 °F 100% 29.91 in 2.5 mi WNW 3.5 mph - 0.07 in Rain Rain
5:54 AM 41.0 °F - 41.0 °F 100% 29.91 in 2.5 mi Calm Calm - 0.20 in Rain Rain
6:43 AM 41.0 °F - 41.0 °F 100% 29.94 in 1.5 mi Calm Calm - 0.25 in Rain Heavy Rain
6:54 AM 41.0 °F - 39.9 °F 96% 29.93 in 1.8 mi Calm Calm - 0.31 in Rain Heavy Rain
7:11 AM 41.0 °F - 39.9 °F 96% 29.91 in 2.5 mi Calm Calm - 0.07 in Rain Rain
7:33 AM 41.0 °F 38.0 °F 39.9 °F 96% 29.90 in 1.5 mi NNE 4.6 mph - 0.13 in Rain Rain
7:51 AM 41.0 °F 38.0 °F 41.0 °F 100% 29.90 in 2.5 mi North 4.6 mph - 0.16 in Rain Light Rain
7:54 AM 41.0 °F 38.0 °F 41.0 °F 100% 29.90 in 2.5 mi North 4.6 mph - 0.16 in Rain Rain
8:18 AM 41.0 °F 38.0 °F 41.0 °F 100% 29.92 in 2.5 mi North 4.6 mph - 0.03 in Rain Light Rain
8:29 AM 41.0 °F 38.0 °F 39.9 °F 96% 29.92 in 3.0 mi NNW 4.6 mph - 0.05 in Rain Light Rain
8:54 AM 41.0 °F 35.2 °F 39.9 °F 96% 29.94 in 3.0 mi NNW 9.2 mph - 0.08 in Rain Rain
9:50 AM 39.2 °F 33.0 °F 39.2 °F 100% 29.96 in 6.0 mi North 9.2 mph - 0.07 in Rain Light Rain
9:54 AM 41.0 °F 34.7 °F 39.0 °F 93% 29.96 in 5.0 mi North 10.4 mph - 0.07 in Rain Light Rain
10:25 AM 39.9 °F 33.4 °F 39.0 °F 97% 29.95 in 4.0 mi North 10.4 mph - 0.03 in Rain Rain
10:42 AM 39.9 °F 35.1 °F 39.0 °F 97% 29.96 in 5.0 mi North 6.9 mph - 0.06 in Rain Rain
10:54 AM 39.9 °F 34.5 °F 39.0 °F 97% 29.96 in 6.0 mi North 8.1 mph - 0.08 in Rain Light Rain
11:15 AM 39.9 °F 33.9 °F 37.9 °F 93% 29.98 in 5.0 mi North 9.2 mph - 0.02 in Rain Light Rain
11:54 AM 39.0 °F 32.8 °F 37.0 °F 93% 29.99 in 5.0 mi North 9.2 mph - 0.09 in Rain Rain
12:31 PM 39.0 °F 31.4 °F 37.0 °F 93% 29.98 in 8.0 mi North 12.7 mph - 0.04 in Rain Light Rain
12:38 PM 39.0 °F 33.4 °F 37.0 °F 93% 29.99 in 10.0 mi North 8.1 mph - 0.04 in Rain Light Rain
12:45 PM 39.2 °F 33.6 °F 37.4 °F 93% 29.99 in 10.0 mi North 8.1 mph - N/A Rain Light Rain
12:54 PM 39.0 °F 32.3 °F 37.0 °F 93% 29.99 in 7.0 mi North 10.4 mph - 0.05 in Rain Light Rain
1:21 PM 37.9 °F 30.5 °F 37.0 °F 97% 29.98 in 7.0 mi NNW 11.5 mph - 0.01 in Rain Light Rain
1:54 PM 37.9 °F 31.5 °F 36.0 °F 93% 29.99 in 10.0 mi North 9.2 mph - 0.02 in Rain Light Rain
2:54 PM 36.0 °F 27.1 °F 34.0 °F 93% 29.98 in 6.0 mi North 13.8 mph - 0.03 in Rain Light Rain
3:54 PM 35.1 °F 28.6 °F 33.1 °F 92% 29.98 in 5.0 mi North 8.1 mph - 0.04 in Rain Rain
4:29 PM 34.0 °F 25.5 °F 33.1 °F 96% 29.99 in 3.0 mi NNW 11.5 mph - 0.04 in Rain Rain
4:54 PM 34.0 °F 25.5 °F 33.1 °F 96% 30.02 in 3.0 mi NNW 11.5 mph - 0.09 in Rain Light Rain
5:13 PM 34.0 °F 24.6 °F 30.9 °F 89% 30.01 in 3.0 mi North 13.8 mph - 0.04 in Rain Rain
5:21 PM 33.1 °F 24.4 °F 30.9 °F 92% 30.00 in 3.0 mi North 11.5 mph - 0.07 in Rain Rain
5:54 PM 33.1 °F 25.5 °F 32.0 °F 96% 30.02 in 2.5 mi North 9.2 mph - 0.15 in Rain Rain
6:51 PM 32.0 °F 20.1 °F 30.2 °F 93% 30.05 in 1.2 mi North 19.6 mph 24.2 mph 0.15 in Snow Light Snow
6:54 PM 32.0 °F 20.8 °F 30.0 °F 92% 30.07 in 1.2 mi North 17.3 mph 24.2 mph 0.15 in Snow Light Snow
7:41 PM 30.9 °F 20.7 °F 30.0 °F 96% 30.09 in 1.0 mi NNW 13.8 mph - 0.11 in Snow Light Snow
7:51 PM 30.2 °F 20.2 °F 30.2 °F 100% 30.10 in 0.8 mi NNW 12.7 mph - 0.12 in Snow Light Snow
7:54 PM 30.9 °F 22.2 °F 30.0 °F 96% 30.13 in 0.8 mi NNW 10.4 mph - 0.12 in Snow Light Snow
8:18 PM 30.0 °F 19.5 °F 28.0 °F 92% 30.11 in 0.5 mi NNW 13.8 mph - 0.06 in Fog , Snow Snow
8:54 PM 28.9 °F 19.8 °F 28.0 °F 96% 30.13 in 0.5 mi NNW 10.4 mph - 0.13 in Fog , Snow Snow
9:54 PM 28.0 °F 17.0 °F 27.0 °F 96% 30.15 in 0.8 mi North 13.8 mph - 0.11 in Snow Light Snow
10:54 PM 27.0 °F 16.1 °F 26.1 °F 96% 30.16 in 0.5 mi NNW 12.7 mph - 0.14 in Fog Light Freezing Fog
11:25 PM 26.1 °F 14.0 °F 24.1 °F 92% 30.16 in 1.0 mi NNW 15.0 mph - 0.06 in   Overcast
11:38 PM 26.1 °F 13.6 °F 24.1 °F 92% 30.15 in 1.2 mi North 16.1 mph - 0.06 in   Overcast
11:46 PM 25.0 °F 12.2 °F 23.0 °F 92% 30.16 in 1.0 mi North 16.1 mph - 0.07 in   Overcast
11:54 PM 25.0 °F 13.1 °F 23.0 °F 92% 30.18 in 0.8 mi North 13.8 mph - 0.07 in   Overcast